Airfield :
LOGIN :

Register | Disclaimer

   EN    FR    IT 

 










Legend :    VFR   Marginal VFR   IFR   Intensive IFR   Very Intensive IFR
Visi :
Ceiling :
>= 8 km
>= 3000ft
5 to 8 km
1000 to 3000 ft
1500m to 5 km
500 to 1000 ft
800 to 1500m
200 to 500 ft
< 800m
< 200 ft
Symbols :   Thunderstorms  Fog  Heavy snow  Heavy precipitations  Wind > 20 kt
SIGMETs :     Misc.  Thunderstorms  Icing  Turbulence  Mountain Waves  Volcanic Ashes






- Airport Elevation : 325 ft
- IATA code : POX


LFPT - Pontoise

CURRENT METAR :
  • 210430Z AUTO 24008KT CAVOK 05/03 Q0993

EXPIRED METARs :
  • 210400Z AUTO 25010KT 230V290 CAVOK 06/04 Q0993
  • 210330Z AUTO 26011KT 9999 FEW014/// OVC056/// ///TCU 06/04 Q0992
  • 210300Z AUTO 26017KT 230V300 9999 RA SCT017/// BKN022/// BKN030/// ///CB 07/04 Q0992
  • 210230Z AUTO 27015KT 9999 -RA FEW014/// BKN019/// BKN025/// ///CB 06/05 Q0990
  • 210200Z AUTO 21026G38KT 9999 -RA BKN017/// OVC037/// ///CB 11/08 Q0987

TAF N/A
ATIS : +33 1 30 30 52 08



MET'MAP, your aeronautical weather chart ! - Copyright ORBIFLY December 2007 - Disclaimer

ORBIFLY MET'MAP TEAM :

Programming & Development : Alexandra Zaïnal
Concept & original design : Baudouin d'Aumeries
Assistance for programming : Marc-Olivier Méhu
Technical & hardware support : Manuel Goepfert

Contact : metmap@orbifly.com




SOURCES & CREDITS :

   NOAA